Weather History for Bryce Canyon, UT

Change the Weather History Date:

Wednesday, January 15, 2014

  Actual Average Record
Temperature  
Mean Temperature 24 °F -  
Max Temperature 41 °F 36 °F 51 °F (1975)
Min Temperature 8 °F 11 °F -16 °F (2007)
Degree Days  
Heating Degree Days 40    
Moisture  
Dew Point 13 °F    
Average Humidity 59    
Maximum Humidity 83    
Minimum Humidity 38    
Precipitation  
Precipitation 0.00 in - - ()
Sea Level Pressure  
Sea Level Pressure 30.46 in    
Wind  
Wind Speed 9 mph (NW)    
Max Wind Speed 14 mph    
Max Gust Speed -    
Visibility 10 miles    
Events      
Averages and records for this station are not official NWS values.
T = Trace of Precipitation, MM = Missing Value Source: NWS Daily Summary

Daily Weather History Graph

Daily Weather History Graph

Search for Another Location

Airport:

Trip Planner

Search our weather history database for the weather conditions in past years. The results will help you decide how hot, cold, wet, or windy it might be!

Date:

Astronomy

Jan. 15, 2014 Rise Set
Actual Time 7:42 AM MST 5:33 PM MST
Civil Twilight 7:13 AM MST 6:02 PM MST
Nautical Twilight 6:41 AM MST 6:34 PM MST
Astronomical Twilight 6:10 AM MST 7:06 PM MST
Moon 5:33 PM MST (1/15) 7:02 AM MST (1/15)
Length of Visible Light 10h 48m
Length of Day
9h 51m
Full, 100% of the Moon is Illuminated
Jan 15
Full
Jan 15
Full
Jan 23
Last Quarter
Jan 30
New
Feb 6
First Quarter

Hourly Weather History & Observations

Time (MST) Temp. Windchill Dew Point Humidity Pressure Visibility Wind Dir Wind Speed Gust Speed Precip Events Conditions
12:53 AM 18.0 °F 11.1 °F 12.0 °F 78% 30.50 in 10.0 mi WNW 4.6 mph - N/A   Clear
1:53 AM 19.0 °F 8.2 °F 12.0 °F 74% 30.50 in 10.0 mi West 9.2 mph - N/A   Clear
2:53 AM 19.0 °F 8.2 °F 10.9 °F 71% 30.49 in 10.0 mi West 9.2 mph - N/A   Clear
3:53 AM 16.0 °F 8.8 °F 10.0 °F 77% 30.50 in 10.0 mi NW 4.6 mph - N/A   Clear
4:53 AM 14.0 °F 8.2 °F 8.1 °F 77% 30.52 in 10.0 mi West 3.5 mph - N/A   Clear
5:53 AM 15.1 °F 0.5 °F 8.1 °F 74% 30.52 in 10.0 mi West 13.8 mph - N/A   Clear
6:53 AM 8.1 °F - 3.9 °F 83% 30.58 in 10.0 mi Calm Calm - N/A   Clear
7:53 AM 17.1 °F 3.6 °F 10.0 °F 74% 30.54 in 10.0 mi West 12.7 mph - N/A   Clear
8:53 AM 21.0 °F 8.6 °F 12.0 °F 68% 30.54 in 10.0 mi West 12.7 mph - N/A   Clear
9:53 AM 25.0 °F 13.6 °F 16.0 °F 69% 30.54 in 10.0 mi West 12.7 mph - N/A   Clear
10:53 AM 33.1 °F 24.4 °F 18.0 °F 54% 30.48 in 10.0 mi West 11.5 mph - N/A   Clear
11:53 AM 37.0 °F 31.6 °F 21.0 °F 52% 30.47 in 10.0 mi NNW 6.9 mph - N/A   Clear
12:53 PM 39.0 °F 32.8 °F 21.0 °F 49% 30.42 in 10.0 mi NW 9.2 mph - N/A   Clear
1:53 PM 41.0 °F 34.3 °F 17.1 °F 38% 30.38 in 10.0 mi North 11.5 mph - N/A   Clear
2:53 PM 41.0 °F 35.2 °F 21.0 °F 45% 30.37 in 10.0 mi North 9.2 mph - N/A   Clear
3:53 PM 41.0 °F 33.5 °F 19.0 °F 41% 30.38 in 10.0 mi WNW 13.8 mph - N/A   Clear
4:53 PM 37.9 °F 30.5 °F 19.0 °F 47% 30.41 in 10.0 mi NNW 11.5 mph - N/A   Clear
5:53 PM 34.0 °F 25.0 °F 17.1 °F 50% 30.42 in 10.0 mi NW 12.7 mph - N/A   Clear
6:53 PM 30.0 °F 20.0 °F 12.0 °F 47% 30.49 in 10.0 mi North 12.7 mph - N/A   Clear
7:53 PM 27.0 °F 16.7 °F 10.9 °F 51% 30.44 in 10.0 mi NNW 11.5 mph - N/A   Clear
8:53 PM 28.9 °F 19.2 °F 10.0 °F 45% 30.40 in 10.0 mi NW 11.5 mph - N/A   Clear
9:53 PM 25.0 °F 14.2 °F 10.0 °F 53% 30.41 in 10.0 mi NNW 11.5 mph - N/A   Clear
10:53 PM 26.1 °F 18.4 °F 8.1 °F 47% 30.36 in 10.0 mi NW 6.9 mph - N/A   Clear
11:53 PM 26.1 °F 17.6 °F 7.0 °F 44% 30.33 in 10.0 mi NW 8.1 mph - N/A   Clear